| time (UTC) | temp F | wind direction | speed MPH | gust MPH | rain 1hr in | rain 24hr in | rain mn in | humidity % | barometer mb |
| 20260504023027 | 55 | 103 | 0.0 | 2.0 | 0.00 | 0.00 | 0.00 | 77 | 1007.5 |
| 20260504021520 | 56 | 102 | 1.0 | 5.0 | 0.00 | 0.00 | 0.00 | 76 | 1007.6 |
| 20260504020019 | 56 | 97 | 0.0 | 3.0 | 0.00 | 0.00 | 0.00 | 75 | 1007.6 |
| 20260504014615 | 57 | 114 | 2.0 | 5.0 | 0.00 | 0.00 | 0.00 | 73 | 1007.6 |
| 20260504013017 | 57 | 232 | 0.0 | 1.0 | 0.00 | 0.00 | 0.00 | 73 | 1007.8 |
| 20260504011518 | 57 | 197 | 0.0 | 4.0 | 0.00 | 0.00 | 0.00 | 72 | 1007.9 |
| 20260504010009 | 58 | 194 | 1.0 | 5.0 | 0.00 | 0.00 | 0.00 | 71 | 1008.0 |
| 20260504004507 | 58 | 79 | 1.0 | 7.0 | 0.00 | 0.00 | 0.00 | 71 | 1008.1 |
| 20260504003006 | 58 | 194 | 0.0 | 4.0 | 0.00 | 0.00 | 0.00 | 70 | 1008.3 |
| 20260504001503 | 58 | 248 | 0.0 | 2.0 | 0.00 | 0.00 | 0.00 | 70 | 1008.4 |
| 20260504000002 | 59 | 248 | 0.0 | 2.0 | 0.00 | 0.00 | 0.00 | 69 | 1008.5 |
| 20260503234600 | 59 | 236 | 1.0 | 4.0 | 0.00 | 0.00 | 0.00 | 68 | 1008.5 |
| 20260503234503 | 59 | 227 | 2.0 | 4.0 | 0.00 | 0.00 | 0.00 | 68 | 1008.5 |
| 20260503233058 | 59 | 238 | 0.0 | 4.0 | 0.00 | 0.00 | 0.00 | 67 | 1008.5 |
| 20260503231557 | 60 | 233 | 1.0 | 7.0 | 0.00 | 0.00 | 0.00 | 67 | 1008.4 |
| 20260503230100 | 60 | 239 | 0.0 | 6.0 | 0.00 | 0.00 | 0.00 | 65 | 1008.4 |
| 20260503224556 | 61 | 251 | 0.0 | 4.0 | 0.00 | 0.00 | 0.00 | 64 | 1008.5 |
| 20260503223054 | 61 | 238 | 1.0 | 6.0 | 0.00 | 0.00 | 0.00 | 63 | 1008.4 |
| 20260503221553 | 62 | 201 | 1.0 | 6.0 | 0.00 | 0.00 | 0.00 | 63 | 1008.3 |
| 20260503220056 | 62 | 194 | 1.0 | 9.0 | 0.00 | 0.00 | 0.00 | 62 | 1008.2 |
| 20260503214551 | 63 | 252 | 2.0 | 7.0 | 0.00 | 0.00 | 0.00 | 61 | 1008.1 |
| 20260503213048 | 64 | 278 | 2.0 | 7.0 | 0.00 | 0.00 | 0.00 | 61 | 1008.0 |
| 20260503211549 | 64 | 278 | 1.0 | 6.0 | 0.00 | 0.00 | 0.00 | 61 | 1007.8 |
| 20260503210047 | 64 | 242 | 0.0 | 7.0 | 0.00 | 0.00 | 0.00 | 61 | 1007.8 |
| 20260503204548 | 64 | 279 | 1.0 | 5.0 | 0.00 | 0.00 | 0.00 | 62 | 1007.7 |
| 20260503203020 | 64 | 283 | 0.0 | 4.0 | 0.00 | 0.00 | 0.00 | 62 | 1007.5 |
| 20260503201517 | 65 | 302 | 4.0 | 8.0 | 0.00 | 0.00 | 0.00 | 61 | 1007.2 |
| 20260503200015 | 65 | 220 | 0.0 | 4.0 | 0.00 | 0.00 | 0.00 | 61 | 1006.9 |
| 20260503194513 | 65 | 213 | 0.0 | 5.0 | 0.00 | 0.00 | 0.00 | 61 | 1006.7 |
| 20260503193013 | 65 | 259 | 2.0 | 8.0 | 0.00 | 0.00 | 0.00 | 61 | 1006.5 |
| 20260503191527 | 66 | 280 | 3.0 | 10.0 | 0.00 | 0.00 | 0.00 | 60 | 1006.4 |
| 20260503190044 | 67 | 237 | 2.0 | 9.0 | 0.00 | 0.00 | 0.00 | 59 | 1006.2 |
| 20260503184545 | 68 | 247 | 4.0 | 11.0 | 0.00 | 0.00 | 0.00 | 57 | 1006.2 |
| 20260503183012 | 69 | 355 | 2.0 | 10.0 | 0.00 | 0.00 | 0.00 | 56 | 1006.2 |
| 20260503181511 | 70 | 234 | 5.0 | 11.0 | 0.00 | 0.00 | 0.00 | 54 | 1006.1 |
| 20260503180008 | 70 | 255 | 5.0 | 11.0 | 0.00 | 0.00 | 0.00 | 53 | 1006.0 |
| 20260503174508 | 70 | 270 | 3.0 | 13.0 | 0.00 | 0.00 | 0.00 | 53 | 1005.8 |
| 20260503173007 | 71 | 272 | 3.0 | 12.0 | 0.00 | 0.00 | 0.00 | 51 | 1005.7 |
| 20260503171506 | 72 | 299 | 5.0 | 11.0 | 0.00 | 0.00 | 0.00 | 48 | 1005.8 |
| 20260503160116 | 75 | 132 | 2.0 | 10.0 | 0.00 | 0.00 | 0.00 | 36 | 1006.0 |
| 20260503081548 | 60 | 257 | 0.0 | 4.0 | 0.00 | 0.00 | 0.00 | 84 | 1009.0 |
| 20260503071550 | 60 | 215 | 1.0 | 5.0 | 0.00 | 0.00 | 0.00 | 85 | 1008.9 |
| 20260503060107 | 59 | 348 | 0.0 | 0.0 | 0.00 | 0.00 | 0.00 | 84 | 1008.0 |
| 20260503054511 | 59 | 348 | 0.0 | 0.0 | 0.00 | 0.00 | 0.00 | 84 | 1007.9 |
| 20260503053011 | 59 | 348 | 0.0 | 0.0 | 0.00 | 0.00 | 0.00 | 83 | 1007.9 |
| 20260503051511 | 59 | 348 | 0.0 | 2.0 | 0.00 | 0.00 | 0.00 | 83 | 1008.1 |
| 20260503050008 | 59 | 348 | 0.0 | 0.0 | 0.00 | 0.00 | 0.00 | 83 | 1008.0 |
| 20260503044506 | 60 | 348 | 0.0 | 0.0 | 0.00 | 0.00 | 0.00 | 82 | 1008.1 |
| 20260503043018 | 60 | 348 | 0.0 | 4.0 | 0.00 | 0.00 | 0.00 | 83 | 1008.3 |
| 20260503041502 | 60 | 328 | 0.0 | 3.0 | 0.00 | 0.00 | 0.00 | 82 | 1008.2 |
| 20260503040001 | 60 | 328 | 0.0 | 0.0 | 0.00 | 0.00 | 0.00 | 82 | 1008.3 |
| 20260503034600 | 60 | 328 | 0.0 | 5.0 | 0.00 | 0.00 | 0.00 | 83 | 1008.6 |
| 20260503033059 | 60 | 325 | 0.0 | 2.0 | 0.00 | 0.00 | 0.00 | 83 | 1008.6 |
| 20260503031557 | 60 | 325 | 0.0 | 2.0 | 0.00 | 0.00 | 0.00 | 83 | 1008.6 |
| 20260503024557 | 60 | 230 | 0.0 | 2.0 | 0.00 | 0.00 | 0.00 | 83 | 1008.7 |